Погода в Канпуре

Индия     26°26′39″N   80°19′15″E
темп.,
°C
ветер,
м/с
пор.,
м/с
влажн.,
%
обл.,
%
осадки,
мм/ч
давл.,
гПа
погр.,
м
24 января, пн
пн2423:30+14зсз34845 0.3 101279
02:30+12ссз23940 0.0 101246
05:30+11сз22956 0.0 101229
08:30+13ссз4683100 0.0 1014241
11:30+18сз346145 0.0 1015709
14:30+20зсз43450 0.0 10121621
17:30+16зсз34590 0.0 101262
20:30+13сз34600 0.0 101561
25 января, вт
вт2523:30+12сз33650 0.0 101532
02:30+10сз22700 0.0 101424
05:30+10сз22750 0.0 101421
08:30+12зсз23690 0.0 1016136
11:30+17зсз22490 0.0 10161296
14:30+19зсз33421 0.0 10121797
17:30+15зсз22560 0.0 101211
20:30+13зсз22623 0.0 101514
26 января, ср
ср2623:30+12зсз22650 0.0 101513
02:30+11зсз22690 0.0 101413
05:30+10зсз22720 0.0 101412
08:30+12з23660 0.0 1016122
11:30+18з34490 0.0 10161328
14:30+19зсз45414 0.0 10131905
17:30+15зсз23579 0.0 101319
20:30+13зсз33632 0.0 101553
27 января, чт
чт2723:30+11зсз34650 0.0 101561
02:30+10сз34710 0.0 101565
05:30+10зсз34720 0.0 101555
08:30+12зсз35680 0.0 1017166
11:30+18зсз44480 0.0 1017892
14:30+20зсз33420 0.0 10151613
17:30+16зсз33570 0.0 101420
20:30+13зсз33630 0.0 101621
28 января, пт
пт2823:30+11зсз34720 0.0 101662
02:30+10зсз34780 0.0 101664
05:30+9зсз34780 0.0 101653
08:30+12зсз35700 0.0 1018173
11:30+18зсз34510 0.0 1018993
14:30+20сз34370 0.0 10151436
17:30+16зсз33510 0.0 101521
20:30+12зсз33480 0.0 101718